{"data":{"norad_id":68145,"epoch":"2026-05-25T00:15:25.083936Z","epoch_age_seconds":67896,"freshness":"FRESH","line1":"1 68145U 26049D   26145.01070699  .00016621  00000+0  51601-3 0  9996","line2":"2 68145  97.2835 166.6665 0001134 111.1793 248.9571 15.33446819 11347","mean_motion":15.33446819,"eccentricity":0.0001134,"inclination_deg":97.2835,"raan_deg":166.6665,"arg_perigee_deg":111.1793,"mean_anomaly_deg":248.9571,"bstar":0.00051601,"rev_number":1134,"period_min":93.90609326374,"perigee_km":464.7616897012,"apogee_km":466.31383513731,"semimajor_km":6843.6747624193,"source":"CELESTRAK","updated_at":"2026-05-25T13:38:21.846917Z"}}